M I D A S
Marine Information and Data Acquisition System
Tripno 2114 of the Zeeleeuw from 2011-06-01 08:00:57 to 2011-06-01 09:49:34
Back to CruiseResearch ActivitiesStationsMapUnderway DataData graphs

EquipmentUnitsComments
TimeDGPSUTC
LatitudeDGPSDM.mWGS84
LongitudeDGPSDM.mWGS84
SpeedMeteo Stationm/sRelative wind speed
DirectionMeteo StationdegRelative wind direction
TemperatureMeteo Stationdeg CelciusAir temperature
PressureMeteo StationPaAtmospheric pressure
HumidityMeteo Station%Relative humidity
Missing or incorrect values are displayed as -999
Metereological data collected by the RV Zeeleeuw from 2011-06-01 07:30:13 to 2011-06-01 09:49:34
Time Latitude Longitude Speed Direction Temperature Pressure Humidity
2011-06-01 07:31 51°13.646 2°55.962 -999 24 14.7 103010 32
2011-06-01 07:32 51°13.668 2°55.863 -999 24 14.6 103020 33
2011-06-01 07:33 51°13.692 2°55.768 -999 24 14.5 103020 33
2011-06-01 07:34 51°13.703 2°55.726 -999 266 14.4 103020 33
2011-06-01 07:35 51°13.702 2°55.738 -999 256 14.5 103020 34
2011-06-01 07:36 51°13.723 2°55.754 -999 319 14.7 103010 33
2011-06-01 07:37 51°13.708 2°55.761 -999 326 14.8 103020 32
2011-06-01 07:38 51°13.758 2°55.714 -999 337 14.9 103010 33
2011-06-01 07:39 51°13.826 2°55.636 -999 333 14.9 103010 33
2011-06-01 07:40 51°13.906 2°55.577 -999 329 14.9 103010 33
2011-06-01 07:41 51°13.992 2°55.521 -999 331 14.9 103010 33
2011-06-01 07:42 51°14.079 2°55.458 -999 329 15 103010 33
2011-06-01 07:43 51°14.184 2°55.374 -999 330 15 103010 33
2011-06-01 07:44 51°14.31 2°55.246 -999 330 15 103000 33
2011-06-01 07:45 51°14.454 2°55.098 -999 331 15 103010 33
2011-06-01 07:46 51°14.594 2°54.907 -999 329 14.9 103000 34
2011-06-01 07:47 51°14.752 2°54.701 -999 328 14.9 103000 34
2011-06-01 07:48 51°14.933 2°54.525 -999 331 14.9 103000 34
2011-06-01 07:49 51°15.063 2°54.265 -999 335 14.9 103010 35
2011-06-01 07:50 51°15.106 2°53.938 -999 339 14.9 103010 34
2011-06-01 07:51 51°15.039 2°53.594 -999 342 14.8 103010 34
2011-06-01 07:52 51°14.927 2°53.277 -999 343 14.8 103010 33
2011-06-01 07:53 51°14.86 2°52.932 -999 338 14.6 103010 35
2011-06-01 07:54 51°14.797 2°52.586 -999 343 14.6 103010 35
2011-06-01 07:55 51°14.709 2°52.252 -999 342 14.5 103010 35
2011-06-01 07:56 51°14.621 2°52.005 -999 351 14.5 103020 35
2011-06-01 07:57 51°14.547 2°51.876 -999 355 14.3 103020 36
2011-06-01 07:58 51°14.494 2°51.749 -999 352 14.1 103020 36
2011-06-01 07:59 51°14.447 2°51.619 -999 351 13.9 103020 35
2011-06-01 08:00 51°14.407 2°51.489 -999 348 13.9 103020 34
2011-06-01 08:01 51°14.381 2°51.36 -999 352 13.9 103020 36
2011-06-01 08:02 51°14.354 2°51.24 -999 350 13.9 103020 35
2011-06-01 08:03 51°14.325 2°51.134 -999 355 13.9 103030 36
2011-06-01 08:04 51°14.288 2°51.036 -999 356 13.8 103030 36
2011-06-01 08:05 51°14.249 2°50.944 -999 359 13.8 103030 36
2011-06-01 08:06 51°14.212 2°50.849 -999 352 13.8 103030 37
2011-06-01 08:07 51°14.184 2°50.751 -999 346 13.8 103020 36
2011-06-01 08:08 51°14.16 2°50.651 -999 348 13.8 103020 35
2011-06-01 08:09 51°14.136 2°50.553 -999 351 13.8 103020 36
2011-06-01 08:10 51°14.111 2°50.454 -999 350 13.7 103020 36
2011-06-01 08:11 51°14.084 2°50.356 -999 351 13.7 103020 35
2011-06-01 08:12 51°14.054 2°50.259 -999 349 13.8 103020 36
2011-06-01 08:13 51°14.023 2°50.166 -999 352 13.7 103030 35
2011-06-01 08:14 51°13.991 2°50.071 -999 348 13.8 103030 36
2011-06-01 08:15 51°13.96 2°49.976 -999 356 13.8 103030 36
2011-06-01 08:16 51°13.93 2°49.88 -999 350 13.8 103030 35
2011-06-01 08:17 51°13.901 2°49.782 -999 352 13.8 103030 37
2011-06-01 08:18 51°13.873 2°49.683 -999 351 13.8 103020 37
2011-06-01 08:19 51°13.843 2°49.586 -999 345 13.8 103020 37
2011-06-01 08:20 51°13.811 2°49.491 -999 352 13.8 103030 37
2011-06-01 08:21 51°13.779 2°49.397 -999 353 13.8 103030 37
2011-06-01 08:22 51°13.746 2°49.299 -999 348 13.8 103030 37
2011-06-01 08:23 51°13.718 2°49.203 -999 345 13.8 103030 37
2011-06-01 08:24 51°13.699 2°49.104 -999 340 13.8 103030 35
2011-06-01 08:25 51°13.689 2°49.005 -999 341 13.9 103030 37
2011-06-01 08:26 51°13.679 2°48.905 -999 343 14 103030 36
2011-06-01 08:27 51°13.667 2°48.804 -999 339 14 103030 37
2011-06-01 08:28 51°13.656 2°48.704 -999 342 14.1 103030 36
2011-06-01 08:29 51°13.643 2°48.6 -999 340 14.2 103030 37
2011-06-01 08:30 51°13.623 2°48.5 -999 341 14.2 103030 37
2011-06-01 08:31 51°13.596 2°48.401 -999 345 14.1 103030 37
2011-06-01 08:32 51°13.57 2°48.302 -999 345 14 103030 35
2011-06-01 08:33 51°13.554 2°48.201 -999 341 14 103030 37
2011-06-01 08:34 51°13.55 2°48.105 -999 337 14.1 103030 37
2011-06-01 08:35 51°13.55 2°48.007 -999 333 14.1 103030 37
2011-06-01 08:36 51°13.559 2°47.913 -999 328 14.1 103030 37
2011-06-01 08:37 51°13.57 2°47.839 -999 329 14.1 103030 37
2011-06-01 08:38 51°13.576 2°47.783 -999 326 14.2 103030 37
2011-06-01 08:39 51°13.595 2°47.719 -999 322 14.2 103030 36
2011-06-01 08:40 51°13.658 2°47.636 -999 24 14.3 103030 36
2011-06-01 08:41 51°13.738 2°47.575 -999 24 14.3 103030 37
2011-06-01 08:42 51°13.809 2°47.507 -999 24 14.3 103020 37
2011-06-01 08:43 51°13.864 2°47.451 -999 24 14.3 103020 37
2011-06-01 08:44 51°13.921 2°47.454 -999 246 14.3 103030 37
2011-06-01 08:45 51°13.961 2°47.522 -999 255 14.3 103040 37
2011-06-01 08:46 51°13.991 2°47.616 -999 253 14.4 103030 37
2011-06-01 08:47 51°14.011 2°47.719 -999 253 14.4 103040 37
2011-06-01 08:48 51°14.014 2°47.827 -999 259 14.6 103040 36
2011-06-01 08:49 51°13.996 2°47.94 -999 25 14.6 103040 37
2011-06-01 08:50 51°13.966 2°48.05 -999 25 14.7 103030 37
2011-06-01 08:51 51°13.938 2°48.16 -999 25 14.8 103040 37
2011-06-01 08:52 51°13.912 2°48.263 -999 24 15 103030 37
2011-06-01 08:53 51°13.89 2°48.357 -999 24 15 103030 37
2011-06-01 08:54 51°13.869 2°48.449 -999 24 15 103030 36
2011-06-01 08:55 51°13.849 2°48.54 -999 24 14.9 103030 36
2011-06-01 08:56 51°13.828 2°48.628 -999 25 14.9 103030 35
2011-06-01 08:57 51°13.821 2°48.714 -999 262 14.9 103030 37
2011-06-01 08:58 51°13.829 2°48.795 -999 256 15.1 103030 37
2011-06-01 08:59 51°13.848 2°48.871 -999 256 15.2 103020 37
2011-06-01 09:00 51°13.874 2°48.943 -999 260 15.2 103030 36
2011-06-01 09:01 51°13.902 2°49.015 -999 258 15.2 103030 36
2011-06-01 09:02 51°13.928 2°49.091 -999 249 15.2 103030 37
2011-06-01 09:03 51°13.954 2°49.166 -999 255 15.3 103020 37
2011-06-01 09:04 51°13.982 2°49.242 -999 252 15.3 103030 35
2011-06-01 09:05 51°14.01 2°49.314 -999 251 15.3 103030 37
2011-06-01 09:06 51°14.04 2°49.386 -999 246 15.3 103030 36
2011-06-01 09:07 51°14.072 2°49.458 -999 249 15.3 103030 36
2011-06-01 09:08 51°14.103 2°49.528 -999 248 15.3 103020 36
2011-06-01 09:09 51°14.129 2°49.607 -999 252 15.4 103020 37
2011-06-01 09:10 51°14.134 2°49.692 -999 265 15.4 103030 36
2011-06-01 09:11 51°14.106 2°49.781 -999 25 15.3 103030 36
2011-06-01 09:12 51°14.059 2°49.834 -999 26 15.2 103020 35
2011-06-01 09:13 51°14.013 2°49.843 -999 24 15.1 103020 36
2011-06-01 09:14 51°13.978 2°49.839 -999 31 15 103020 37
2011-06-01 09:15 51°13.946 2°49.838 -999 27 14.8 103020 37
2011-06-01 09:16 51°13.917 2°49.835 -999 32 14.7 103020 37
2011-06-01 09:17 51°13.896 2°49.827 -999 35 14.6 103020 37
2011-06-01 09:18 51°13.858 2°49.815 -999 4 14.5 103020 37
2011-06-01 09:19 51°13.828 2°49.747 -999 344 14.4 103010 37
2011-06-01 09:20 51°13.862 2°49.661 1.9 319 14.2 103010 36
2011-06-01 09:21 51°13.932 2°49.731 -999 24 14.3 103010 38
2011-06-01 09:22 51°14.009 2°49.958 -999 315 14.3 103010 38
2011-06-01 09:23 51°14.088 2°50.228 -999 319 14.3 103010 38
2011-06-01 09:24 51°14.173 2°50.508 -999 320 14.3 103010 37
2011-06-01 09:25 51°14.257 2°50.781 -999 319 14.4 103010 37
2011-06-01 09:26 51°14.334 2°51.011 -999 321 14.5 103010 37
2011-06-01 09:27 51°14.413 2°51.311 -999 321 14.5 103010 38
2011-06-01 09:28 51°14.501 2°51.61 -999 319 14.5 103010 36
2011-06-01 09:29 51°14.585 2°51.92 -999 318 14.5 103010 38
2011-06-01 09:30 51°14.634 2°52.243 -999 317 14.6 103010 38
2011-06-01 09:31 51°14.694 2°52.562 -999 316 14.6 103010 38
2011-06-01 09:32 51°14.746 2°52.885 -999 316 14.6 103010 38
2011-06-01 09:33 51°14.807 2°53.207 -999 320 14.6 103010 38
2011-06-01 09:34 51°14.843 2°53.535 -999 321 14.6 103010 38
2011-06-01 09:35 51°14.831 2°53.864 -999 320 14.7 103010 38
2011-06-01 09:36 51°14.776 2°54.195 -999 324 14.7 103010 36
2011-06-01 09:37 51°14.698 2°54.513 -999 324 14.7 103010 38
2011-06-01 09:38 51°14.596 2°54.808 -999 328 14.6 103010 37
2011-06-01 09:39 51°14.445 2°55.056 -999 323 14.7 103010 37
2011-06-01 09:40 51°14.275 2°55.265 -999 325 14.8 103010 37
2011-06-01 09:41 51°14.15 2°55.387 -999 346 14.9 103010 37
2011-06-01 09:42 51°14.06 2°55.452 -999 18 14.9 103010 37
2011-06-01 09:43 51°13.964 2°55.523 -999 348 14.8 103010 37
2011-06-01 09:44 51°13.867 2°55.592 -999 315 14.7 103010 36
2011-06-01 09:45 51°13.78 2°55.67 -999 253 14.8 103010 37
2011-06-01 09:46 51°13.717 2°55.763 -999 261 14.9 103010 37
2011-06-01 09:47 51°13.675 2°55.859 -999 261 15 103010 37
2011-06-01 09:48 51°13.65 2°55.949 -999 259 15 103010 37
2011-06-01 09:49 51°13.638 2°56.007 -999 24 15.1 103010 37